This is the latest recevied weather packets stored in our database for station/object EW1958. If no packets are shown the sender has not sent any weather packets the latest 10 day(s).
| Time | Temp. | Humidity | Pressure | Rain* | Wind** | Luminosity | Snow |
|---|---|---|---|---|---|---|---|
| 1788384241 | 17.22° C | 79% | 1007.3 hPa | 0 mm | - | - | - |
| 1788383941 | 17.78° C | 77% | 1007.2 hPa | 0 mm | - | - | - |
| 1788383640 | 17.78° C | 74% | 1007.2 hPa | 0 mm | - | - | - |
| 1788383340 | 17.78° C | 73% | 1007.3 hPa | 0 mm | - | - | - |
| 1788383187 | 18.33° C | 72% | 1007.3 hPa | 0 mm | - | - | - |
| 1788382736 | 18.33° C | 72% | 1007.2 hPa | 0 mm | - | - | - |
| 1788382569 | 18.33° C | 70% | 1007.2 hPa | 0 mm | - | - | - |
| 1788382149 | 18.33° C | 69% | 1007.2 hPa | 0 mm | - | - | - |
| 1788381680 | 18.89° C | 67% | 1007.1 hPa | 0 mm | - | - | - |
| 1788381379 | 18.89° C | 68% | 1007.1 hPa | 0 mm | - | - | - |
| 1788381059 | 18.89° C | 65% | 1007.1 hPa | 0 mm | - | - | - |
| 1788380628 | 19.44° C | 65% | 1007.2 hPa | 0 mm | - | - | - |
| 1788380329 | 19.44° C | 65% | 1007.2 hPa | 0 mm | - | - | - |
| 1788380027 | 20° C | 67% | 1007.1 hPa | 0 mm | - | - | - |
| 1788379730 | 20° C | 66% | 1007.1 hPa | 0 mm | - | - | - |
| 1788379445 | 19.44° C | 64% | 1007.1 hPa | 0 mm | - | - | - |
| 1788379439 | 19.44° C | 65% | 1007.1 hPa | 0 mm | - | - | - |
| 1788378945 | 19.44° C | 63% | 1007.1 hPa | 0 mm | - | - | - |
| 1788378514 | 19.44° C | 68% | 1007.2 hPa | 0 mm | - | - | - |
| 1788378214 | 19.44° C | 66% | 1007.4 hPa | 0 mm | - | - | - |
| 1788377914 | 19.44° C | 68% | 1007.4 hPa | 0 mm | - | - | - |
| 1788377746 | 19.44° C | 66% | 1007.5 hPa | 0 mm | - | - | - |
| 1788377314 | 18.89° C | 66% | 1007.4 hPa | 0 mm | - | - | - |
| 1788377015 | 18.89° C | 66% | 1007.4 hPa | 0 mm | - | - | - |
| 1788376715 | 18.89° C | 68% | 1007.5 hPa | 0 mm | - | - | - |
* Rain latest hour (hover to see other rain measurements)
** Current wind speed in m/s (hover to see current wind gust speed)